Theta_e
329 329 329 329 328 328 328 327 327 327 327 327 327 327 328 328 328 328 328 328 328 329 329 329 329 330 331 331 330 330 331 329 328 327 326 327 327 326 327 327 328 328 327 327 327 327 327 327 327 326 325 323 322 321 321 322 322 321 319 319 320 319 318
329 330 330 329 329 329 328 328 328 327 328 329 328 328 329 329 328 328 328 328 328 330 330 330 330 330 331 331 330 330 330 330 329 327 327 328 327 326 327 327 327 328 327 327 327 327 326 327 327 326 325 322 320 321 321 321 320 319 319 321 322 321 320
329 330 330 330 330 329 327 327 328 328 329 329 329 329 329 330 329 329 329 329 329 329 330 330 330 330 331 331 330 330 330 329 328 326 326 328 327 327 327 326 326 326 327 328 327 327 326 326 327 326 325 322 320 320 320 319 319 318 318 319 320 320 320
329 331 330 329 328 326 324 323 323 325 328 329 330 330 330 331 330 330 330 330 329 329 329 331 330 329 331 331 330 330 329 328 327 325 326 327 327 326 327 325 324 325 327 327 326 327 326 326 326 326 324 323 320 318 318 318 317 317 316 316 317 317 317
329 331 329 328 327 325 324 324 324 326 329 329 330 329 329 330 330 329 330 330 330 329 329 330 330 329 330 331 330 328 328 328 327 325 325 325 325 326 326 324 323 324 326 326 325 325 325 326 325 325 324 322 319 317 316 317 316 316 315 315 315 315 315
329 331 331 331 330 327 327 329 329 330 331 329 328 328 327 328 329 328 329 329 329 329 329 330 330 329 330 331 330 328 327 327 326 326 325 324 324 326 326 324 323 324 325 324 324 325 325 325 325 324 323 321 319 317 315 316 316 315 315 315 314 314 313
328 331 332 332 332 330 330 331 331 331 330 329 327 327 326 325 326 327 327 327 328 328 328 329 329 330 330 330 330 329 328 325 324 325 324 324 325 326 326 325 324 325 325 324 324 325 324 325 325 324 322 319 317 315 314 315 315 314 314 313 313 313 312
327 330 332 331 331 331 330 331 331 331 329 328 327 326 325 324 324 323 322 324 325 327 328 328 328 329 329 329 329 330 329 326 325 325 323 322 324 324 324 325 324 324 326 325 324 325 324 325 325 323 321 318 314 313 313 314 314 313 312 312 312 312 310
328 330 331 330 330 331 330 330 330 330 329 329 326 322 321 322 322 321 320 321 322 325 327 328 328 329 329 329 329 329 329 328 326 325 324 322 322 323 324 324 324 323 325 325 324 324 325 325 324 323 321 317 313 312 312 312 312 311 311 311 312 311 310
330 330 329 328 330 331 330 330 330 329 329 327 324 320 319 318 319 321 325 324 322 322 324 326 328 328 328 328 328 328 328 328 327 325 325 324 322 323 324 323 324 324 324 324 323 324 324 324 324 323 320 317 314 313 312 312 311 311 311 311 311 312 311
330 329 327 327 329 331 330 330 329 328 326 323 320 319 317 316 316 320 326 326 322 320 322 325 327 327 327 327 327 328 328 327 327 325 323 324 324 322 322 322 323 325 325 325 323 323 324 325 324 322 320 318 315 314 313 311 311 311 311 311 311 312 311
328 328 328 329 330 330 329 328 327 325 322 319 316 315 316 317 317 318 323 323 319 318 320 322 323 324 325 326 327 329 329 327 327 327 324 323 324 323 322 323 323 324 325 324 324 324 324 325 324 322 320 319 317 316 314 313 312 311 311 311 312 312 311
328 328 329 329 329 329 327 326 325 322 319 317 314 315 320 322 322 320 320 320 320 320 321 323 322 321 322 324 326 327 327 326 327 329 327 324 324 324 323 323 322 323 323 323 324 325 324 324 324 321 321 320 318 317 316 315 313 312 311 311 311 311 311
330 330 329 329 329 327 326 324 322 318 318 318 315 317 323 324 324 323 322 322 323 323 324 325 325 323 322 323 325 325 326 325 325 327 327 326 325 324 323 323 322 323 324 323 323 325 325 324 322 321 321 320 318 316 316 315 313 312 312 312 312 311 311
330 330 329 329 329 327 326 324 320 318 319 320 319 323 325 323 323 324 323 323 325 325 326 326 325 324 323 322 324 326 325 325 325 324 325 325 325 325 324 323 323 324 323 323 324 325 325 324 321 321 321 319 317 316 316 315 314 313 312 313 312 311 310
329 329 328 329 328 327 326 323 319 319 319 320 323 326 323 319 321 323 323 324 324 324 326 325 323 323 323 323 325 325 325 324 324 323 324 325 325 325 326 324 324 325 323 324 324 324 324 323 320 320 319 318 316 315 315 316 315 314 313 314 314 312 311
327 327 328 328 328 328 325 322 322 321 318 320 324 325 321 319 321 323 323 324 324 323 324 323 323 324 324 324 324 324 324 325 324 324 325 325 324 324 326 325 325 326 325 325 324 324 323 322 320 320 318 316 315 313 315 316 316 315 314 314 314 313 313
326 326 328 327 327 327 325 323 324 323 321 322 324 322 320 321 322 322 322 323 322 322 323 323 324 324 324 323 323 323 324 323 322 322 323 324 323 322 324 326 327 326 326 325 324 323 322 321 320 320 317 316 315 313 314 317 316 316 316 315 313 313 314
327 326 327 327 326 327 325 324 324 324 323 324 323 320 320 321 322 320 320 321 322 322 323 323 323 323 323 322 322 322 323 322 322 322 321 322 323 321 322 324 325 326 326 325 324 322 322 321 320 319 317 316 316 314 314 317 317 317 317 316 315 314 315
327 327 327 326 326 327 326 325 325 325 324 324 322 320 320 321 321 320 320 321 321 321 321 322 322 323 323 322 322 322 322 322 322 321 320 320 321 321 321 322 323 324 325 325 323 322 322 321 320 320 317 316 317 315 314 315 316 317 317 317 317 316 315
327 327 327 327 327 327 327 325 325 325 324 323 321 320 320 320 320 320 320 321 320 320 319 320 321 322 322 322 322 322 322 322 322 321 320 321 321 321 321 322 321 322 323 323 322 322 322 321 320 320 318 317 318 318 316 315 315 316 317 317 317 317 317
328 328 327 327 326 327 326 324 324 324 323 321 320 319 318 319 320 320 320 319 320 320 319 319 320 320 321 321 321 322 322 322 322 321 321 321 321 321 321 321 321 321 321 321 322 322 322 321 320 320 319 318 319 318 317 317 317 317 317 318 318 317 317
328 328 327 327 327 327 325 323 324 323 321 319 318 318 318 319 320 320 319 320 319 319 319 318 319 319 319 320 320 321 321 321 321 321 321 321 320 320 321 320 320 321 321 321 321 321 322 322 321 321 321 320 319 320 319 319 319 318 318 318 318 318 318
327 327 327 327 326 325 324 323 322 321 319 319 318 317 317 318 319 319 319 319 319 318 318 317 317 318 318 319 319 319 320 320 320 320 320 319 319 319 319 320 320 320 320 321 320 320 320 321 322 322 321 320 320 320 320 319 320 319 319 319 319 318 318
327 327 327 326 325 324 323 322 321 320 319 319 318 318 318 318 317 318 318 317 317 317 317 316 316 317 318 318 318 318 319 320 320 319 319 319 319 318 318 319 320 319 318 318 318 318 319 320 321 321 321 321 320 320 320 319 319 319 319 318 318 318 318
327 326 326 326 325 323 322 321 320 321 320 319 320 320 319 318 318 317 318 317 313 311 313 314 315 315 316 317 317 317 317 319 319 319 319 319 319 319 318 318 320 319 318 317 317 316 317 318 318 319 319 319 319 319 319 319 319 319 319 320 319 319 319
326 326 326 326 324 322 321 321 321 320 320 319 320 320 319 318 318 317 317 315 310 308 309 310 311 311 311 313 315 314 316 318 319 319 319 319 320 320 319 320 320 319 319 318 317 316 317 318 318 318 317 317 316 316 316 315 316 316 317 317 317 317 317
325 325 325 325 323 321 320 320 320 319 318 318 318 318 317 317 316 315 315 314 312 311 311 311 310 310 309 309 310 312 315 319 319 320 320 319 320 320 320 321 321 320 320 320 319 317 316 317 319 318 317 316 317 317 317 317 316 316 315 314 314 313 313
324 324 324 323 322 319 318 318 317 316 316 316 316 316 316 316 315 314 314 314 313 313 313 313 313 312 311 310 310 312 315 318 319 320 320 320 320 321 321 320 320 319 320 320 319 319 318 317 317 317 316 315 315 316 317 318 319 319 319 318 318 317 316
321 321 322 321 319 317 316 316 315 315 315 315 316 316 315 315 314 314 314 314 314 314 313 313 313 313 313 313 312 313 316 318 319 319 320 320 320 320 321 320 319 318 318 317 317 316 317 316 316 316 316 316 315 316 316 318 318 318 318 318 318 318 318
319 319 320 319 317 316 316 317 317 316 316 315 315 315 314 314 313 313 315 315 315 314 314 314 313 313 313 314 314 314 316 318 319 319 318 318 318 319 319 318 318 317 317 317 316 316 317 317 317 318 318 318 318 317 317 317 318 317 318 317 317 317 317
317 317 317 317 316 317 317 317 317 316 315 315 314 313 312 313 314 314 316 317 316 316 316 315 315 314 314 314 314 314 315 316 317 317 316 315 314 314 313 313 314 315 315 316 316 317 317 317 316 315 315 314 313 312 311 311 311 311 312 312 312 312 312
315 315 315 315 315 315 315 316 316 316 315 314 314 313 313 314 315 316 316 317 317 317 317 317 316 316 316 315 315 316 316 315 315 315 316 314 311 309 309 310 310 311 313 314 314 313 312 311 310 309 308 308 307 306 306 306 306 306 306 306 306 307 307
312 312 313 313 312 311 311 312 313 314 314 314 313 313 314 314 315 315 315 315 315 315 316 316 316 316 316 316 316 316 316 316 315 313 313 312 309 307 308 309 310 310 310 310 309 308 307 306 306 306 305 305 304 304 304 304 304 304 304 304 303 303 303
309 309 310 310 310 310 310 310 311 311 312 312 312 313 313 313 313 313 313 314 314 314 314 314 314 315 315 315 315 315 314 314 314 312 310 309 308 307 307 307 308 309 308 307 306 305 304 304 304 302 302 302 301 301 301 301 301 301 300 300 300 300 300
307 307 307 307 307 307 307 307 308 308 308 309 310 309 309 309 308 308 309 309 309 309 309 309 310 310 311 311 311 312 312 312 312 311 310 308 307 307 307 307 307 307 307 306 304 302 301 300 300 299 299 299 299 299 298 298 298 298 298 299 299 299 299
305 305 306 305 303 303 302 302 303 303 304 306 306 306 306 307 307 306 306 306 305 304 303 303 303 303 304 303 303 304 304 305 305 304 303 302 302 302 302 302 301 301 301 301 300 299 299 298 298 298 298 298 298 298 299 299 299 299 298 298 299 300 301
Wind_Speed
13 13 13 14 13 13 13 12 11 11 11 11 11 10 10 10 9 10 10 11 11 9 9 10 9 8 9 8 10 11 11 12 14 16 16 18 20 18 15 12 10 14 18 16 15 18 19 18 15 13 13 13 13 15 12 9 9 9 9 8 7 5 2
13 13 13 13 12 12 11 11 11 11 11 10 10 10 9 8 7 7 8 8 9 9 8 9 9 9 9 8 9 11 11 11 13 14 16 18 19 18 17 14 11 15 18 16 14 15 17 19 16 14 15 14 16 17 12 9 11 11 9 9 9 6 3
15 14 13 12 11 10 9 9 10 10 10 9 9 8 7 6 5 5 6 7 8 9 7 9 9 8 9 9 9 10 10 11 12 13 14 17 19 18 18 16 13 15 18 17 15 15 16 17 16 13 13 14 16 15 11 9 11 12 11 11 9 6 6
17 16 14 12 10 8 8 9 9 8 7 6 7 7 6 6 5 5 6 6 7 7 7 9 9 8 8 8 8 10 9 9 11 12 13 16 17 18 19 16 13 14 18 18 16 15 15 15 17 14 10 11 13 13 11 10 10 11 12 11 8 7 8
19 17 14 11 11 10 9 9 9 9 8 7 7 7 7 7 6 5 6 6 6 6 7 9 9 8 8 7 7 8 8 10 11 11 12 15 17 18 19 16 13 13 16 17 14 13 13 14 16 15 12 11 10 10 12 12 10 10 11 10 9 9 9
18 18 16 13 13 12 11 10 10 11 10 10 9 8 7 7 6 5 5 6 6 6 7 8 7 8 8 6 6 8 9 11 11 10 12 15 16 19 18 16 14 13 15 16 13 13 14 15 16 15 14 13 11 11 13 13 11 10 9 9 9 10 10
17 18 18 17 14 13 13 13 12 13 12 10 9 8 7 7 6 5 4 4 5 5 6 7 7 8 8 7 6 8 10 10 9 10 13 14 16 17 17 17 15 12 14 15 13 14 15 16 18 17 15 15 13 11 12 13 12 11 11 10 10 10 9
18 17 18 17 15 14 14 14 13 12 11 10 10 9 9 8 7 6 6 5 5 5 5 5 7 7 7 8 8 8 10 10 9 10 12 13 15 15 14 16 16 13 13 14 13 14 15 16 19 17 15 16 15 12 13 14 13 12 12 12 11 10 9
17 17 16 16 17 15 14 14 12 10 11 11 10 10 10 9 7 5 4 4 5 5 4 4 5 6 7 9 9 7 9 9 9 12 14 14 14 14 13 13 15 15 13 14 15 14 15 18 20 17 14 15 16 16 16 15 15 14 13 14 13 11 11
17 16 15 16 16 15 13 14 13 13 13 12 9 8 9 9 8 7 5 5 5 5 4 4 4 4 5 7 7 7 9 8 9 11 13 12 13 14 14 12 13 15 14 14 14 14 16 19 20 20 17 15 16 17 17 15 15 16 15 15 14 13 12
17 16 16 16 16 16 16 16 15 14 12 10 8 8 8 8 9 10 9 8 7 5 5 5 4 3 4 5 5 7 10 9 9 10 10 11 13 13 14 13 14 15 15 15 15 16 19 19 19 21 19 15 14 15 16 16 16 15 15 15 14 13 12
17 16 16 17 17 17 17 16 15 12 9 7 6 6 7 7 9 11 11 9 7 6 5 4 4 4 4 5 4 5 8 8 10 12 10 9 11 12 13 14 14 15 16 17 17 18 19 18 19 20 18 15 13 12 14 16 17 14 13 14 14 13 12
18 17 17 17 18 17 16 15 14 11 8 7 5 6 7 7 7 8 7 6 5 5 5 4 4 3 3 5 4 4 6 7 10 12 10 9 9 10 12 13 13 14 16 19 19 19 19 17 18 18 16 13 12 11 12 14 17 15 12 13 15 13 11
20 18 18 17 16 16 15 14 13 11 9 7 6 8 8 6 6 6 5 5 4 3 4 4 5 4 3 5 5 5 6 6 8 9 9 8 8 10 11 12 13 13 16 20 19 17 18 17 18 17 14 12 11 11 12 13 17 17 13 11 12 12 12
23 20 19 18 17 17 16 15 13 12 10 8 7 8 8 7 8 6 6 6 5 5 5 4 5 6 5 4 6 6 6 7 8 8 9 9 8 9 11 13 15 14 16 20 17 15 16 16 19 16 11 11 13 12 12 14 16 18 17 15 12 13 15
25 23 21 20 19 18 17 15 14 12 11 10 9 7 6 7 9 7 6 7 6 7 7 4 4 6 5 5 6 6 6 8 8 8 9 9 7 10 12 14 15 15 17 18 16 14 14 16 19 15 11 10 11 12 14 14 16 19 19 19 16 15 16
25 25 25 22 19 18 17 16 14 12 11 11 10 8 6 7 9 8 7 6 5 6 6 5 7 7 6 6 6 6 7 7 6 7 10 9 7 8 12 14 15 16 18 18 17 15 13 17 19 13 11 11 8 11 15 11 14 18 18 19 19 17 16
25 26 25 22 20 18 17 16 14 12 11 11 10 8 7 8 8 7 8 6 4 5 6 8 9 8 8 7 6 6 7 7 8 8 9 10 7 6 8 12 14 15 16 17 19 16 12 15 15 8 10 12 7 10 12 9 14 17 14 15 17 16 17
26 26 24 23 21 18 17 16 15 13 12 10 9 8 8 8 6 6 7 7 6 7 7 8 8 8 10 10 8 7 6 7 8 8 7 9 9 7 5 6 9 11 13 15 19 19 13 11 10 8 11 13 9 10 10 8 12 14 12 14 13 12 16
27 26 24 24 23 19 17 17 15 14 13 11 10 10 9 9 7 6 7 7 7 8 8 8 8 8 10 11 11 10 8 6 7 7 7 6 6 5 4 4 4 5 9 14 19 19 15 12 11 9 11 14 12 13 14 12 11 10 9 11 11 10 13
27 27 26 26 24 20 19 18 16 15 14 12 11 10 10 10 10 9 9 8 8 10 8 7 8 8 9 10 11 11 11 9 7 9 9 7 6 7 6 5 4 3 7 12 17 19 17 14 12 9 12 14 10 10 15 14 13 12 9 7 10 11 9
28 28 27 26 24 22 20 19 17 15 14 14 12 11 11 11 10 10 12 10 8 10 10 7 8 9 8 8 8 8 10 9 8 8 7 5 8 8 6 5 5 4 5 7 12 17 17 15 13 10 12 14 10 9 12 11 9 12 10 8 10 11 10
29 28 27 26 25 22 20 19 18 15 14 14 13 12 12 12 10 10 12 11 9 10 11 8 7 9 9 8 6 6 6 7 7 8 6 4 6 5 4 5 5 5 5 5 7 11 14 15 15 12 12 13 12 10 10 9 7 9 9 9 10 11 12
29 28 27 26 25 23 21 20 18 16 15 16 14 13 13 13 11 11 11 10 10 10 10 10 9 8 9 9 7 8 7 5 6 7 4 3 5 4 4 4 5 5 6 7 8 8 11 13 15 15 13 13 14 13 11 11 10 10 10 11 11 10 12
29 28 28 28 27 26 25 22 20 19 18 17 16 14 14 14 13 13 11 8 8 9 9 11 11 10 10 9 9 10 9 6 6 7 5 4 5 5 6 6 5 4 6 9 10 9 10 12 14 15 14 12 14 14 14 13 13 13 13 13 13 13 13
31 31 31 31 30 30 28 26 25 24 22 20 19 16 15 14 12 13 12 7 5 6 8 10 11 12 12 11 11 10 7 6 6 7 7 6 5 7 9 7 6 5 6 8 9 9 8 9 12 14 15 14 13 14 15 15 15 15 14 14 15 16 16
35 35 34 33 33 31 30 29 27 26 23 22 21 17 13 11 10 11 11 7 4 4 6 7 8 10 11 12 12 11 8 7 8 8 9 8 6 8 11 10 8 8 7 6 8 9 8 7 8 10 13 13 13 13 15 16 16 17 18 17 17 18 18
36 35 33 33 33 31 30 30 27 24 21 19 17 13 9 8 9 9 8 7 5 6 6 5 6 7 8 9 11 12 10 10 9 7 8 8 6 6 9 8 7 8 7 5 6 8 9 8 7 8 9 10 10 10 10 12 13 15 17 19 20 20 20
35 34 34 33 33 31 30 28 24 22 20 17 14 11 10 9 9 8 8 7 7 7 6 6 6 6 7 8 10 11 8 6 7 6 6 6 5 5 7 8 7 7 7 6 5 6 8 8 9 9 10 10 10 10 10 11 12 13 15 17 19 20 22
33 33 33 32 31 29 26 22 20 19 18 16 13 12 12 12 11 10 10 9 9 8 8 8 7 7 8 8 9 9 6 3 3 3 2 3 4 4 5 6 6 6 7 7 7 8 9 9 10 11 12 12 13 13 14 15 16 17 19 20 21 22 23
29 30 29 28 26 24 21 18 17 16 15 14 12 11 11 12 12 11 10 10 10 9 9 10 9 9 10 9 9 10 10 7 5 5 6 3 2 3 4 5 7 7 9 9 10 11 11 12 13 14 15 16 17 17 18 19 20 22 22 23 25 26 26
22 21 20 18 17 18 17 17 16 15 14 13 11 10 11 11 11 11 10 10 10 9 9 10 10 10 11 11 11 11 11 11 10 11 10 6 2 1 4 6 8 9 12 13 13 13 13 14 15 16 17 18 18 19 21 21 22 23 24 25 26 27 28
11 11 10 9 10 13 15 16 16 16 14 12 10 11 12 11 11 10 10 9 9 8 8 8 8 9 10 11 12 12 13 12 11 11 12 8 3 1 5 7 9 11 13 14 14 14 14 14 15 16 17 19 20 22 23 24 24 26 27 28 29 29 30
10 10 8 9 11 13 13 13 13 13 12 11 11 11 11 10 9 8 7 7 7 7 7 8 8 8 9 10 11 11 12 12 11 10 11 9 6 4 8 10 11 12 14 14 15 16 17 18 20 20 21 22 23 24 26 27 28 29 30 31 31 32 32
14 14 13 12 12 13 13 12 12 11 11 11 11 10 9 7 6 5 4 5 5 6 7 7 7 9 10 10 11 11 11 11 12 11 11 10 9 9 11 13 14 15 17 18 19 20 21 22 23 23 23 23 24 25 27 28 28 29 30 31 32 32 33
13 13 13 11 10 10 10 10 11 11 10 9 8 7 7 5 3 2 1 3 3 4 5 6 5 6 7 8 8 10 10 10 12 13 13 13 14 14 16 18 18 17 19 20 20 21 21 21 21 21 22 22 23 24 25 25 25 26 26 27 28 29 29
11 11 11 11 11 12 11 11 11 12 13 12 10 10 11 11 9 7 5 2 1 2 3 4 4 4 6 6 6 7 8 9 10 12 12 13 14 14 15 16 16 16 16 17 18 19 20 20 20 20 19 18 19 19 20 21 21 22 22 23 22 23 23
Wind_Direction
163 157 156 160 163 166 169 175 187 196 198 203 216 221 214 215 222 221 217 216 215 217 221 221 217 211 203 184 183 190 184 179 181 185 184 178 177 179 178 174 169 167 167 168 166 160 150 145 141 138 147 152 147 144 147 164 155 119 94 86 94 99 90
165 162 155 159 165 162 164 174 183 189 190 195 207 213 209 206 211 214 211 208 207 213 217 213 208 206 203 193 188 188 183 181 181 186 193 187 180 183 182 181 179 172 170 169 167 167 161 151 145 150 162 162 150 147 156 163 136 116 107 116 126 128 135
167 167 160 162 167 161 161 169 175 178 179 181 191 203 208 200 198 203 203 200 202 211 211 199 196 201 205 200 188 181 175 177 185 188 192 192 189 188 186 187 189 182 175 171 170 172 168 158 153 159 168 170 167 164 165 154 138 138 141 146 154 150 155
163 167 164 162 162 161 161 161 159 158 162 172 186 200 205 196 195 196 192 192 198 208 204 193 192 198 211 209 186 178 177 179 190 191 187 193 195 190 189 189 188 187 183 178 175 177 177 167 157 158 164 173 178 173 160 145 140 141 138 142 152 150 166
159 162 162 159 160 162 161 156 152 154 165 184 192 197 199 194 195 192 188 191 195 203 199 193 194 196 207 213 191 184 192 192 196 199 190 190 193 190 189 190 190 192 191 188 184 184 186 171 158 159 162 163 164 160 151 141 138 140 140 148 155 163 192
157 156 155 158 163 162 160 158 161 169 178 188 192 191 191 191 190 182 185 193 193 198 201 197 196 197 201 203 189 181 186 191 195 196 188 184 189 191 189 190 194 195 193 191 187 187 185 170 160 164 166 159 152 152 149 143 148 153 152 158 161 179 214
160 156 153 160 161 154 156 161 169 178 183 188 192 189 189 191 191 182 180 190 191 194 198 196 192 192 194 190 180 175 175 182 192 193 187 183 185 187 187 192 196 195 191 190 189 187 184 175 167 165 165 159 153 157 151 148 159 160 155 163 166 185 223
163 155 150 155 153 153 162 166 172 180 179 187 193 190 191 197 199 193 184 184 186 187 192 198 194 187 190 186 179 178 175 176 189 191 178 174 179 182 185 192 195 194 189 188 190 186 185 184 172 163 165 159 154 163 159 157 168 164 159 163 166 189 220
162 153 152 155 153 160 169 164 166 168 168 183 194 191 190 198 204 191 182 188 176 174 186 197 192 176 182 185 176 181 187 177 177 183 174 169 182 191 188 188 194 196 192 187 189 186 183 183 172 163 168 164 162 167 166 167 170 164 160 161 166 191 220
159 154 159 161 156 159 162 159 165 171 179 190 191 185 185 195 196 164 158 202 191 174 177 177 178 159 166 180 171 175 187 175 162 176 183 177 182 196 196 192 194 196 194 191 193 191 183 180 175 169 168 170 172 168 168 173 169 163 164 167 172 190 221
165 168 172 169 161 162 165 169 176 182 189 192 183 181 180 189 191 167 168 203 202 178 165 158 162 144 139 159 167 166 167 167 162 168 183 180 178 188 192 194 194 191 193 191 192 193 185 181 181 175 168 174 183 173 172 172 160 159 168 175 187 199 216
176 179 176 169 166 170 175 180 183 185 187 182 180 181 169 172 184 177 182 200 197 176 164 155 157 154 144 145 156 158 149 154 163 162 166 172 176 181 184 190 192 189 192 189 185 188 186 184 187 178 168 177 188 183 181 172 159 164 176 181 193 204 218
178 182 179 173 172 175 180 182 182 182 178 173 172 161 156 164 169 172 181 178 168 164 157 152 152 155 153 140 143 158 150 153 162 162 164 167 171 175 178 186 188 188 193 189 183 185 183 179 180 176 175 189 197 196 195 178 162 164 176 188 192 197 217
176 183 183 177 174 174 179 183 182 177 170 170 164 149 151 159 151 149 150 134 132 143 144 152 151 144 145 139 140 155 157 158 160 161 164 163 163 169 176 184 186 189 191 187 184 186 185 179 176 179 189 200 201 193 184 171 162 162 169 187 192 195 212
175 176 175 172 172 174 179 182 178 174 168 160 145 142 156 159 145 139 139 140 144 139 136 162 162 148 151 145 138 149 155 148 152 160 159 153 157 167 175 184 186 186 186 185 185 186 189 183 176 178 184 195 206 197 179 175 175 175 176 180 184 196 210
178 172 168 174 174 174 179 179 173 174 170 153 143 158 176 150 134 137 143 149 154 146 146 170 155 135 138 137 130 144 149 137 144 157 149 145 159 170 174 180 181 181 183 186 184 179 183 181 176 178 177 192 220 206 185 190 193 189 186 183 182 194 208
182 175 170 176 175 174 180 175 170 174 168 154 153 169 167 132 134 147 143 139 143 142 142 126 109 108 114 115 114 125 131 138 151 151 147 158 167 164 171 177 177 178 181 182 175 173 186 184 179 186 185 188 218 198 186 202 204 194 190 185 184 193 212
180 177 174 176 175 178 179 171 168 168 158 158 163 161 146 136 147 151 137 125 96 91 109 110 111 120 118 109 114 124 126 134 136 125 138 160 147 116 154 179 180 180 181 177 170 174 196 188 178 190 188 182 200 197 194 207 199 193 195 193 189 193 212
176 178 178 178 177 180 176 169 168 160 154 166 164 146 138 139 148 144 125 114 94 94 112 121 125 134 128 119 118 127 130 122 115 108 120 150 143 106 105 165 181 183 184 180 172 175 193 195 193 212 195 184 193 201 206 205 184 184 197 202 193 189 205
176 176 177 179 178 175 170 168 164 155 162 174 156 141 146 145 143 135 121 128 145 148 145 143 143 138 134 136 132 132 137 121 123 139 132 139 163 150 118 140 173 175 177 179 175 176 186 197 210 215 189 186 202 209 212 218 203 194 201 202 196 195 204
178 174 177 180 175 170 171 169 161 160 169 167 147 144 152 145 138 138 146 164 175 171 167 160 154 144 139 148 148 144 140 126 131 151 136 111 125 134 139 165 184 169 167 175 179 182 186 196 212 210 182 181 194 200 204 215 221 220 225 227 217 215 217
179 176 180 178 170 171 173 163 159 169 168 153 146 151 151 141 136 151 172 185 183 179 182 172 154 154 153 152 150 151 149 137 132 144 147 133 121 124 148 176 176 178 177 177 183 187 191 201 214 211 190 187 184 179 189 200 213 218 225 246 246 240 246
180 177 178 173 169 172 167 159 166 173 158 148 149 150 144 138 143 168 185 190 190 192 196 190 170 164 164 154 139 135 147 152 145 141 151 156 131 134 182 196 190 198 202 199 199 198 202 208 215 212 204 203 202 197 197 199 206 218 224 240 249 248 251
183 177 172 168 166 164 160 162 171 163 148 148 147 141 141 145 158 183 196 196 199 204 205 205 198 182 172 165 148 129 124 136 148 140 136 149 147 159 201 208 205 212 216 215 212 211 213 214 216 216 215 215 216 220 219 216 217 222 225 235 242 243 245
180 174 168 165 163 163 163 165 163 156 153 151 142 142 155 161 170 189 197 197 206 213 214 212 209 202 192 179 163 146 127 123 146 147 143 161 167 176 201 211 209 216 228 223 214 211 214 216 217 218 218 217 219 225 228 228 229 229 230 238 243 240 238
174 170 166 166 166 167 168 165 161 160 157 150 148 158 172 176 183 194 199 204 214 210 208 207 205 207 206 196 185 173 139 120 150 160 162 177 170 156 165 170 161 163 190 208 206 200 201 210 216 217 220 224 225 227 229 231 235 236 237 242 245 246 246
170 170 170 170 171 170 170 168 168 167 162 157 163 171 181 188 190 192 198 206 198 176 179 188 190 196 202 200 197 193 172 149 154 160 169 188 195 167 156 150 151 169 186 205 204 196 191 201 214 221 228 233 238 243 244 244 246 246 245 247 249 252 253
168 171 172 172 172 172 172 171 171 172 168 167 172 177 186 191 184 180 185 186 175 165 163 168 169 172 180 182 185 188 181 164 161 168 175 185 199 187 172 167 174 183 192 205 201 199 202 206 215 231 241 242 244 251 256 257 260 260 259 261 262 262 261
169 169 170 172 173 172 172 173 174 176 177 178 181 185 188 185 178 175 177 181 182 178 174 174 169 162 159 158 169 177 172 161 173 188 183 175 183 195 199 207 211 203 209 226 224 219 224 228 237 249 257 258 257 259 261 262 262 263 265 268 271 272 273
164 162 165 170 172 173 175 179 182 185 188 190 191 195 198 198 195 189 185 190 194 191 188 185 181 177 167 160 167 166 144 134 191 186 120 139 179 200 212 223 230 229 237 247 249 250 253 256 262 268 273 276 276 276 273 269 263 259 258 260 263 267 269
157 159 163 166 170 175 181 187 190 192 196 197 195 197 203 205 204 199 195 197 199 199 199 195 190 188 182 176 180 172 148 138 157 139 100 93 211 228 238 249 251 248 249 253 257 259 265 270 274 278 280 281 281 280 277 274 272 269 265 264 265 267 268
146 151 157 159 164 174 183 188 189 189 191 192 190 192 199 205 205 201 197 196 197 201 204 203 200 199 194 190 194 192 179 172 175 165 145 127 114 276 270 270 268 261 258 262 265 267 271 275 277 279 280 279 279 278 277 277 277 277 275 274 274 274 274
130 135 144 155 163 169 175 180 183 185 188 191 191 189 193 196 195 194 191 188 191 197 203 208 207 206 208 206 203 202 202 199 197 192 183 168 144 271 261 258 262 263 263 267 273 278 280 282 282 283 282 282 282 281 281 281 281 281 281 281 280 280 280
110 116 128 144 146 144 148 156 161 166 171 172 173 175 177 179 180 186 193 193 196 202 209 218 220 218 224 225 217 212 212 212 214 217 215 208 206 237 253 254 259 269 276 281 284 288 290 290 291 291 289 288 287 285 284 284 284 284 284 283 282 281 280
94 101 109 121 126 126 128 131 132 137 146 152 157 160 161 166 174 184 203 216 225 233 236 238 237 234 237 239 233 226 225 227 232 238 244 243 243 254 265 270 273 279 285 289 291 292 294 294 295 295 294 292 291 289 288 288 288 287 286 285 285 283 283
79 84 89 92 92 95 98 103 111 115 116 117 121 123 115 101 91 111 209 229 228 237 251 255 253 251 253 255 251 245 244 249 254 261 267 268 266 265 268 272 277 280 281 285 290 293 295 295 295 295 294 293 293 293 293 293 294 294 293 292 292 291 292
72 80 86 85 79 76 75 78 87 95 98 99 103 105 101 94 83 69 57 52 210 243 275 273 263 262 268 274 278 275 274 275 276 276 277 277 278 278 278 281 286 287 284 284 287 290 293 296 299 301 303 303 301 301 301 303 304 304 303 303 305 307 310